Weather History for Guadalupe Pass, TX

Change the Weather History Date:

Sunday, March 17, 2013

  Actual Average Record
Temperature  
Mean Temperature 62 °F -  
Max Temperature 75 °F 61 °F 81 °F (2011)
Min Temperature 50 °F 39 °F 30 °F (2005)
Degree Days  
Heating Degree Days 4    
Growing Degree Days 12 (Base 50)    
Moisture  
Dew Point 15 °F    
Average Humidity 17    
Maximum Humidity 54    
Minimum Humidity 9    
Precipitation  
Precipitation 0.00 in - - ()
Sea Level Pressure  
Sea Level Pressure 29.69 in    
Wind  
Wind Speed 22 mph (WSW)    
Max Wind Speed 45 mph    
Max Gust Speed 56 mph    
Visibility 8 miles    
Events      
Averages and records for this station are not official NWS values.
T = Trace of Precipitation, MM = Missing Value Source: NWS Daily Summary

Daily Weather History Graph

Daily Weather History Graph

Search for Another Location

Airport:

Trip Planner

Search our weather history database for the weather conditions in past years. The results will help you decide how hot, cold, wet, or windy it might be!

Date:

Astronomy

Mar. 17, 2013 Rise Set
Actual Time 7:06 AM MDT 7:08 PM MDT
Civil Twilight 6:42 AM MDT 7:33 PM MDT
Nautical Twilight 6:13 AM MDT 8:01 PM MDT
Astronomical Twilight 5:45 AM MDT 8:30 PM MDT
Moon 10:40 AM MDT (3/17) 12:00 AM MDT (3/17)
Length of Visible Light 12h 51m
Length of Day
12h 02m
Waxing Crescent, 32% of the Moon is Illuminated
Mar 17
Waxing Crescent
Mar 19
First Quarter
Mar 27
Full
Apr 2
Last Quarter
Apr 10
New

Hourly Weather History & Observations

Time (MDT) Temp. Dew Point Humidity Pressure Visibility Wind Dir Wind Speed Gust Speed Precip Events Conditions
12:51 AM 57.0 °F 8.1 °F 14% 29.69 in 10.0 mi WSW 12.7 mph 20.7 mph N/A   Clear
1:51 AM 60.1 °F 10.9 °F 14% 29.67 in 10.0 mi WSW 21.9 mph - N/A   Clear
2:51 AM 57.0 °F 10.9 °F 16% 29.68 in 10.0 mi WSW 15.0 mph - N/A   Clear
3:51 AM 55.9 °F 10.9 °F 17% 29.68 in 10.0 mi WSW 11.5 mph - N/A   Clear
4:51 AM 54.0 °F 10.9 °F 18% 29.70 in 10.0 mi WSW 13.8 mph 21.9 mph N/A   Clear
5:51 AM 55.0 °F 12.0 °F 18% 29.71 in 10.0 mi WSW 8.1 mph 17.3 mph N/A   Clear
6:51 AM 52.0 °F 12.9 °F 21% 29.74 in 10.0 mi Variable 4.6 mph - N/A   Clear
7:51 AM 53.1 °F 16.0 °F 23% 29.76 in 8.0 mi WSW 5.8 mph - N/A   Clear
8:51 AM 50.0 °F 34.0 °F 54% 29.81 in 7.0 mi East 8.1 mph - N/A   Clear
9:51 AM 55.9 °F 21.9 °F 27% 29.78 in 8.0 mi SW 12.7 mph - N/A   Clear
10:51 AM 64.9 °F 18.0 °F 16% 29.75 in 8.0 mi WSW 29.9 mph 36.8 mph N/A   Clear
11:51 AM 70.0 °F 19.0 °F 14% 29.72 in 9.0 mi WSW 27.6 mph 39.1 mph N/A   Clear
12:51 PM 72.0 °F 19.0 °F 13% 29.68 in 8.0 mi WSW 38.0 mph 52.9 mph N/A   Clear
1:51 PM 73.0 °F 17.1 °F 12% 29.63 in 8.0 mi WSW 42.6 mph 51.8 mph N/A   Clear
2:51 PM 73.9 °F 15.1 °F 11% 29.61 in 8.0 mi WSW 34.5 mph 47.2 mph N/A   Clear
3:51 PM 73.0 °F 14.0 °F 11% 29.60 in 8.0 mi WSW 40.3 mph 55.2 mph N/A   Clear
4:51 PM 71.1 °F 10.0 °F 9% 29.61 in 7.0 mi WSW 41.4 mph 56.4 mph N/A   Clear
5:51 PM 70.0 °F 12.0 °F 11% 29.59 in 6.0 mi WSW 43.7 mph 56.4 mph N/A   Haze
6:51 PM 66.9 °F 12.9 °F 12% 29.64 in 5.0 mi West 41.4 mph 55.2 mph N/A   Haze
7:51 PM 64.9 °F 12.9 °F 13% 29.67 in 7.0 mi WSW 42.6 mph 51.8 mph N/A   Mostly Cloudy
8:51 PM 64.0 °F 12.9 °F 14% 29.68 in 7.0 mi WSW 44.9 mph 52.9 mph N/A   Clear
9:51 PM 62.1 °F 12.9 °F 15% 29.71 in 8.0 mi WSW 36.8 mph 44.9 mph N/A   Clear
10:51 PM 61.0 °F 12.9 °F 15% 29.71 in 8.0 mi West 36.8 mph 43.7 mph N/A   Clear
11:51 PM 61.0 °F 10.9 °F 14% 29.72 in 9.0 mi West 29.9 mph 43.7 mph N/A   Clear